Regional Weather Roundup
Issued by NWS

Home | Current Version | Previous Version | Graphics & Text | Print | Product List | Glossary On
Versions: 1 2 3 4 5 6 7 8 9 10 11 12 13 14 15 16 17 18 19 20 21 22 23 24 25 26 27 28 29 30 31 32 33 34 35 36 37 38 39 40 41 42 43 44 45 46 47 48 49 50
873
ASUS45 KTFX 230010
RWRMT
MONTANA REGIONAL WEATHER ROUNDUP
NATIONAL WEATHER SERVICE GREAT FALLS MT
600 PM MDT SAT JUL 22 2017

NOTE: "FAIR" INDICATES FEW OR NO CLOUDS BELOW 12000 FEET WITH NO
SIGNIFICANT WEATHER AND/OR OBSTRUCTIONS TO VISIBILITY.

MTZ001>007-043-230100-
WEST OF THE DIVIDE

CITY           SKY/WX    TMP DP  RH WIND       PRES   REMARKS
KALISPELL      SUNNY     85  42  22 S14       30.08F
MISSOULA       SUNNY     88  39  17 SW8       30.08F
BUTTE          SUNNY     83  30  14 W7        30.22F
MULLAN PASS    SUNNY     72  42  34 VRB7      30.31F
ANACONDA         N/A     81  41  24 N8        30.18F
DEER LODGE       N/A     82  39  21 NW10G17   30.18F
EUREKA           N/A     90  45  20 MISG      30.05F
HAMILTON         N/A     86  43  22 NW5       30.12F
LIBBY            N/A     88  45  22 S3        30.06S
PLAINS           N/A     90  45  21 NW9       30.07F
$$

MTZ008-052>055-230100-
SOUTHWEST MONTANA

CITY           SKY/WX    TMP DP  RH WIND       PRES   REMARKS
BOZEMAN        SUNNY     87  30  13 E6        30.14F
DILLON         SUNNY     87  34  15 NE10      30.16F
W YELLOWSTONE  SUNNY     81  25  12 SW9       30.27F
ENNIS          SUNNY     86  25  10 NW10      30.23F
THREE FORKS      N/A     89  29  11 NE7       30.09F
TWIN BRIDGES     N/A     87  37  17 CALM      30.13F
$$

MTZ009-010-012-014-046-048-049-054-230100-
EAST SLOPES AND CENTRAL MONTANA

CITY           SKY/WX    TMP DP  RH WIND       PRES   REMARKS
CUT BANK       SUNNY     86  39  19 NW13      30.07F
GREAT FALLS    SUNNY     89  35  14 CALM      30.07F
HELENA         SUNNY     90  37  15 W13G21    30.09F
CHOTEAU          N/A     88  39  18 N8        30.10F
CONRAD           N/A     87  46  23 W9        30.10S
$$

MTZ011-013-016-021-045-047-050-051-230100-
NORTH CENTRAL MONTANA

CITY           SKY/WX    TMP DP  RH WIND       PRES   REMARKS
HAVRE          SUNNY     89  38  16 W7        30.00F
LEWISTOWN      SUNNY     85  36  17 N8        30.12S
N BAR RANCH      N/A     84  34  16 N9G16     30.15S
CHINOOK          N/A     88  41  19 SW8       30.01S
$$

MTZ017>020-022>027-061-062-230100-
NORTHEAST MONTANA

CITY           SKY/WX    TMP DP  RH WIND       PRES   REMARKS
GLASGOW        SUNNY     86  43  22 MISG      30.01F
JORDAN           N/A     87  38  17 CALM      30.02F
SIDNEY         SUNNY     85  47  26 NW15      30.00S
WOLF POINT     MOSUNNY   86  43  22 NW14G26   30.01S
MALTA          SUNNY     86  41  20 VRB5      30.01S
PLENTYWOOD       N/A     79  46  31 NW10G16   30.02R
POPLAR           N/A     82  45  26 N12G17    30.01S
SCOBEY           N/A     79  47  32 N12       30.03S
$$

MTZ028>42-056>058-230100-
SOUTHCENTRAL AND SOUTHEAST MONTANA

CITY           SKY/WX    TMP DP  RH WIND       PRES   REMARKS
BAKER          SUNNY     86  38  18 NW17      30.06S
BILLINGS       MOSUNNY   89  28  11 SE6       30.06F
LIVINGSTON     SUNNY     90  20   7 NW14G23   30.13F
MILES CITY     SUNNY     91  34  13 NW12      30.02F
BIG TIMBER     SUNNY     88  19   8 W9G16     30.14S
FORSYTH          N/A     90  34  13 CALM      30.02F
LAUREL           N/A     89  33  13 NE6       30.05F
$$

REGIONAL REPORTS...DAKOTAS

CITY           SKY/WX    TMP DP  RH WIND       PRES   REMARKS
WILLISTON      SUNNY     84  46  26 NW14      30.00S
MINOT            N/A     76  52  43 NW18      29.96R
DICKINSON      SUNNY     83  45  26 NW14G25   30.00S
BEACH            N/A     82  39  21 NW15G25   30.07S
CROSBY           N/A     77  50  38 NW13G23   30.01R
TIOGA            N/A     77  48  36 NW13G23   30.02S
WATFORD CITY     N/A     82  46  28 NW13G21   29.99S
BISMARCK       SUNNY     84  50  30 NW14      29.95S
GRAND FORKS    PTSUNNY   75  56  51 NW16      29.85R
FARGO            N/A     81  55  40 NW13      29.85S
BUFFALO SD       N/A     87  41  19 NW17      29.98F
RAPID CITY     MOSUNNY   91  40  16 N12       30.04F
$$

REGIONAL REPORTS...WYOMING/IDAHO/WASHINGTON

CITY           SKY/WX    TMP DP  RH WIND       PRES   REMARKS
GILLETTE       SUNNY     89  30  12 NE7       30.11F
SHERIDAN       SUNNY     89  32  13 W3        30.10F
BUFFALO WY     SUNNY     85  31  14 N7        30.17F
CODY           SUNNY     83  36  18 NE12      30.16S
YELLOWSTONE LA   N/A     78  17  10 VRB3      30.38S
IDAHO FALLS    SUNNY     87  45  23 N5        30.14F
BOISE          SUNNY     93  37  14 NW14G22   30.02F
SPOKANE        MOSUNNY   88  45  22 W9G21     30.09F
$$

REGIONAL REPORTS...ALBERTA

CITY           SKY/WX    TMP DP  RH WIND       PRES   REMARKS
EDMONTON       MOSUNNY   77  52  41 W7        29.95F
CALGARY        PTSUNNY   82  45  26 W15G23    30.01S
LETHBRIDGE     MOSUNNY   88  45  22 W17G23    29.99F
MEDICINE HAT   PTSUNNY   82  43  24 W5        29.98F
CARDSTON         N/A     82  43  24 W6          N/A
MILK RIVER       N/A     86  46  25 W14G21      N/A
$$

REGIONAL REPORTS...SASKATCHEWAN

CITY           SKY/WX    TMP DP  RH WIND       PRES   REMARKS
SWIFT CURRENT  SUNNY     77  46  33 NW12      30.04S
REGINA         MOSUNNY   77  52  41 NW13      30.00S
SASKATOON      MOSUNNY   75  55  50 NW10      30.00F
CYPRESS HILLS    N/A     75  46  35 N5          N/A
VAL MARIE        N/A     82  41  23 NW7         N/A
ROCKGLEN         N/A     75  46  35 N10         N/A
$$




USA.gov is the U.S. government's official web portal to all federal, state and local government web resources and services.